Cortez, CO

10:04 AM MDT on July 23, 2016 (GMT -0600)
Cortez Municipal

Weather History for KCEZ - April, 2013

Change the Weather History Date:

Friday, April 12, 2013

  Actual Average Record
Temperature  
Mean Temperature 44 °F 46 °F  
Max Temperature 64 °F 63 °F 73 °F (2006)
Min Temperature 23 °F 29 °F 16 °F (1997)
Degree Days  
Heating Degree Days 21 19  
Month to date heating degree days 236 246  
Since 1 July heating degree days 5834 5776  
Cooling Degree Days 0 0  
Month to date cooling degree days 0 0  
Year to date cooling degree days 0 0  
Moisture  
Dew Point 22 °F    
Average Humidity 51    
Maximum Humidity 85    
Minimum Humidity 16    
Precipitation  
Precipitation 0.00 in 0.04 in 0.24 in (2007)
Month to date precipitation 0.06 0.45  
Year to date precipitation 2.57 3.53  
Sea Level Pressure  
Sea Level Pressure 29.87 in    
Wind  
Wind Speed 5 mph (NE)    
Max Wind Speed 23 mph    
Max Gust Speed 33 mph    
Visibility 10 miles    
Events      
T = Trace of Precipitation, MM = Missing Value Source: NWS Daily Summary

Daily Weather History Graph

Daily Weather History Graph

Search for Another Location

Airport or City:

Trip Planner

Search our weather history database for the weather conditions in past years. The results will help you decide how hot, cold, wet, or windy it might be!

Date:

Astronomy

Apr. 12, 2013 Rise Set
Actual Time 6:43 AM MDT 7:47 PM MDT
Civil Twilight 6:16 AM MDT 8:14 PM MDT
Nautical Twilight 5:45 AM MDT 8:45 PM MDT
Astronomical Twilight 5:12 AM MDT 9:19 PM MDT
Moon 7:58 AM MDT (4/12) 10:17 PM MDT (4/12)
Length of Visible Light 13h 57m
Length of Day
13h 03m
Waxing Crescent, 5% of the Moon is Illuminated
Apr 12
Waxing Crescent
Apr 18
First Quarter
Apr 25
Full
May 2
Last Quarter
May 9
New

Hourly Weather History & Observations

Time (MDT) Temp. Windchill Dew Point Humidity Pressure Visibility Wind Dir Wind Speed Gust Speed Precip Events Conditions
12:53 AM 30.9 °F 24.3 °F 26.1 °F 82% 29.89 in 10.0 mi ENE 6.9 mph - N/A   Mostly Cloudy
1:53 AM 28.9 °F 22.8 °F 25.0 °F 85% 29.90 in 10.0 mi ENE 5.8 mph - N/A   Partly Cloudy
2:53 AM 28.0 °F - 24.1 °F 85% 29.88 in 10.0 mi Calm Calm - N/A   Scattered Clouds
3:53 AM 26.1 °F 18.4 °F 21.9 °F 84% 29.88 in 10.0 mi NE 6.9 mph - N/A   Clear
4:53 AM 27.0 °F 18.7 °F 21.9 °F 81% 29.89 in 10.0 mi ENE 8.1 mph - N/A   Clear
5:53 AM 24.1 °F 18.2 °F 19.9 °F 84% 29.89 in 10.0 mi NE 4.6 mph - N/A   Clear
6:53 AM 24.1 °F 18.2 °F 19.0 °F 81% 29.91 in 10.0 mi East 4.6 mph - N/A   Clear
7:53 AM 30.9 °F - 25.0 °F 79% 29.93 in 10.0 mi Calm Calm - N/A   Clear
8:53 AM 39.9 °F - 27.0 °F 60% 29.91 in 10.0 mi Calm Calm - N/A   Clear
9:53 AM 50.0 °F - 27.0 °F 41% 29.90 in 10.0 mi Calm Calm - N/A   Clear
10:53 AM 55.0 °F - 26.1 °F 33% 29.89 in 10.0 mi South 4.6 mph - N/A   Clear
11:53 AM 57.9 °F - 26.1 °F 30% 29.90 in 10.0 mi NNW 6.9 mph - N/A   Scattered Clouds
12:53 PM 59.0 °F - 23.0 °F 25% 29.88 in 10.0 mi Variable 4.6 mph - N/A   Mostly Cloudy
1:53 PM 60.1 °F - 23.0 °F 24% 29.86 in 10.0 mi NW 8.1 mph 18.4 mph N/A   Mostly Cloudy
2:53 PM 63.0 °F - 21.0 °F 20% 29.84 in 10.0 mi Variable 4.6 mph - N/A   Scattered Clouds
3:53 PM 63.0 °F - 19.9 °F 19% 29.82 in 10.0 mi WNW 5.8 mph - N/A   Overcast
4:53 PM 63.0 °F - 17.1 °F 17% 29.80 in 10.0 mi Variable 3.5 mph - N/A   Partly Cloudy
5:53 PM 64.0 °F - 17.1 °F 16% 29.80 in 10.0 mi NW 11.5 mph - N/A   Mostly Cloudy
6:53 PM 59.0 °F - 19.9 °F 22% 29.83 in 10.0 mi WNW 9.2 mph - N/A   Clear
7:53 PM 55.9 °F - 23.0 °F 28% 29.83 in 10.0 mi NNE 13.8 mph 33.4 mph N/A   Overcast
8:53 PM 52.0 °F - 21.9 °F 31% 29.84 in 10.0 mi Calm Calm - N/A   Clear
9:53 PM 41.0 °F 38.0 °F 21.0 °F 45% 29.86 in 10.0 mi East 4.6 mph - N/A   Clear
10:53 PM 37.9 °F - 21.0 °F 51% 29.88 in 10.0 mi Calm Calm - N/A   Clear
11:53 PM 35.1 °F 29.3 °F 21.0 °F 57% 29.88 in 10.0 mi ENE 6.9 mph - N/A   Clear